Waarnemingen

Advertentie
Mijn weer
L9F, Nederland (6207): temperatuur & dauwpunt: 14.08.2017 04:00:00 - 20.08.2017 04:00:00 (CEST)L9F, Nederland (6207): windsnelheid & windstoten: 14.08.2017 04:00:00 - 20.08.2017 04:00:00 (CEST)L9F, Nederland (6207): windrichting: 14.08.2017 04:00:00 - 20.08.2017 04:00:00 (CEST)L9F, Nederland (6207): luchtdruk: 14.08.2017 04:00:00 - 20.08.2017 04:00:00 (CEST)L9F, Nederland (6207): zicht: 14.08.2017 04:00:00 - 20.08.2017 04:00:00 (CEST)
Datum & Tijd tt [°C] td [°C] ff [km/u] ff [kn] fx [km/u] fx [kn] dd ppp [hPa] vv [km]
20.08.2017 04:00:00 17,0 11,0 44 24 - - W 1015,2 10
20.08.2017 03:00:00 16,8 11,1 44 24 47 25 W 1015,2 10
20.08.2017 02:00:00 16,9 10,6 44 24 47 25 W 1014,8 10
20.08.2017 01:00:00 16,9 10,5 41 22 43 23 W 1014,9 10
20.08.2017 00:00:00 17,0 9,9 41 22 40 21 W 1014,8 10
19.08.2017 23:00:00 16,8 10,4 42 23 43 23 W 1014,7 10
19.08.2017 22:00:00 17,2 9,9 44 24 43 23 W 1014,3 10
19.08.2017 21:00:00 16,9 9,5 44 24 47 25 W 1013,9 10
19.08.2017 20:00:00 16,2 11,6 46 25 50 27 WZW 1013,6 10
19.08.2017 19:00:00 16,7 11,0 42 23 65 35 WZW 1013,5 10
19.08.2017 18:00:00 17,1 10,8 44 24 47 25 WZW 1013,5 10
19.08.2017 17:00:00 16,8 10,2 44 24 47 25 WZW 1013,5 10
19.08.2017 16:00:00 16,5 10,6 44 24 43 23 W 1013,1 10
19.08.2017 15:00:00 16,4 10,0 41 22 40 21 W 1012,8 10
19.08.2017 14:00:00 16,2 9,7 39 21 43 23 W 1012,2 10
19.08.2017 13:00:00 16,1 11,0 41 22 43 23 W 1011,5 10
19.08.2017 12:00:00 15,1 12,0 44 24 43 23 WZW 1011,0 10
19.08.2017 11:00:00 16,0 10,7 42 23 43 23 WZW 1010,5 10
19.08.2017 10:00:00 16,0 10,3 39 21 40 21 WZW 1010,1 10
19.08.2017 09:00:00 16,2 10,5 37 20 36 19 WZW 1009,8 10
19.08.2017 08:00:00 16,2 10,5 31 17 32 18 W 1009,5 10
19.08.2017 07:00:00 16,3 10,7 26 14 32 18 W 1008,8 10
19.08.2017 06:00:00 16,4 11,0 28 15 29 16 W 1008,4 10
19.08.2017 05:00:00 16,7 10,7 29 16 32 18 WZW 1008,2 10
19.08.2017 04:00:00 16,5 10,8 37 20 36 19 WZW 1008,2 10
19.08.2017 03:00:00 16,9 9,3 39 21 43 23 ZW 1008,5 10
19.08.2017 02:00:00 17,0 9,6 35 19 40 21 WZW 1008,6 10
19.08.2017 01:00:00 17,1 10,4 41 22 43 23 WZW 1008,4 10
19.08.2017 00:00:00 16,4 10,4 34 18 36 19 ZW 1008,7 10
18.08.2017 23:00:00 15,9 8,7 9 5 25 14 W 1008,9 10
18.08.2017 22:00:00 14,9 8,9 44 24 61 33 WNW 1009,2 10
18.08.2017 21:00:00 17,5 10,9 18 10 18 10 WZW 1009,0 10
18.08.2017 20:00:00 17,5 11,5 15 8 18 10 WZW 1008,6 10
18.08.2017 19:00:00 17,7 12,0 18 10 25 14 W 1008,4 10
18.08.2017 18:00:00 16,5 14,1 24 13 36 19 WZW 1008,4 7
18.08.2017 17:00:00 17,8 13,5 34 18 36 19 WZW 1007,8 10
18.08.2017 16:00:00 17,5 14,1 39 21 36 19 WZW 1007,8 10
18.08.2017 15:00:00 17,3 14,0 35 19 36 19 WZW 1007,9 10
18.08.2017 14:00:00 15,8 13,4 39 21 47 25 WZW 1008,1 7
18.08.2017 13:00:00 18,3 15,0 41 22 40 21 ZW 1008,0 10
18.08.2017 12:00:00 18,5 15,0 41 22 43 23 ZW 1008,2 10
18.08.2017 11:00:00 18,3 15,0 37 20 43 23 ZW 1008,6 10
18.08.2017 10:00:00 18,2 14,9 39 21 40 21 ZW 1008,8 10
18.08.2017 09:00:00 18,2 15,1 31 17 36 19 ZW 1008,8 10
18.08.2017 08:00:00 18,5 15,3 42 23 43 23 ZW 1008,8 10
18.08.2017 07:00:00 18,5 15,4 44 24 47 25 ZW 1008,6 10
18.08.2017 06:00:00 18,5 16,6 42 23 47 25 ZW 1008,9 10
18.08.2017 05:00:00 18,8 17,2 39 21 40 21 ZW 1009,1 10
18.08.2017 04:00:00 18,9 16,6 34 18 36 19 ZW 1009,3 10
18.08.2017 03:00:00 18,8 17,0 39 21 43 23 ZW 1009,4 10
18.08.2017 02:00:00 18,8 17,2 48 26 47 25 ZW 1009,7 10
18.08.2017 01:00:00 18,8 17,1 44 24 47 25 ZW 1009,8 10
18.08.2017 00:00:00 18,8 17,3 42 23 43 23 ZW 1010,1 10
17.08.2017 23:00:00 18,8 17,4 46 25 47 25 ZW 1010,2 10
17.08.2017 22:00:00 18,9 17,4 46 25 47 25 ZW 1010,4 10
17.08.2017 21:00:00 18,9 17,4 46 25 54 29 ZW 1010,3 10
17.08.2017 20:00:00 19,1 17,3 46 25 50 27 ZW 1010,1 10
17.08.2017 19:00:00 19,0 17,8 39 21 43 23 ZW 1010,0 10
17.08.2017 18:00:00 18,4 17,8 42 23 43 23 ZW 1010,1 4,3
17.08.2017 17:00:00 18,7 17,0 46 25 50 27 ZW 1010,4 10
17.08.2017 16:00:00 18,6 17,0 48 26 50 27 ZW 1010,3 8
17.08.2017 15:00:00 18,5 16,6 50 27 54 29 ZZW 1010,2 10
17.08.2017 14:00:00 18,0 15,9 59 32 58 31 ZZW 1010,3 10
17.08.2017 13:00:00 17,9 15,4 59 32 58 31 ZZW 1010,6 10
17.08.2017 12:00:00 17,7 15,3 42 23 47 25 ZZW 1011,0 10
17.08.2017 11:00:00 18,8 16,0 42 23 47 25 ZZW 1011,7 10
17.08.2017 10:00:00 19,2 15,5 52 28 50 27 Z 1011,8 10
17.08.2017 09:00:00 20,0 15,6 50 27 58 31 Z 1011,9 10
17.08.2017 08:00:00 20,2 15,7 44 24 47 25 Z 1012,4 10
17.08.2017 07:00:00 19,7 16,1 41 22 43 23 Z 1013,0 10
17.08.2017 06:00:00 21,0 15,9 37 20 36 19 Z 1013,6 10
17.08.2017 05:00:00 23,0 16,3 35 19 32 18 Z 1014,4 10
17.08.2017 04:00:00 22,4 15,9 35 19 36 19 Z 1015,2 10
17.08.2017 03:00:00 22,2 14,9 34 18 32 18 Z 1015,8 10
17.08.2017 02:00:00 22,4 15,4 29 16 32 18 Z 1016,4 10
17.08.2017 01:00:00 19,1 14,9 29 16 29 16 Z 1017,1 10
17.08.2017 00:00:00 19,2 16,1 29 16 29 16 Z 1017,4 10
16.08.2017 23:00:00 19,5 16,1 28 15 29 16 Z 1018,0 10
16.08.2017 22:00:00 21,9 16,2 21 11 22 12 Z 1018,5 10
16.08.2017 21:00:00 21,5 15,5 15 8 18 10 ZZW 1018,7 10
16.08.2017 20:00:00 19,1 16,8 18 10 18 10 ZW 1019,0 10
16.08.2017 19:00:00 19,7 16,6 18 10 25 14 Z 1019,1 10
16.08.2017 18:00:00 23,1 15,7 28 15 29 16 Z 1019,4 10
16.08.2017 17:00:00 23,8 17,1 22 12 29 16 Z 1019,5 10
16.08.2017 16:00:00 22,8 15,6 22 12 25 14 Z 1019,8 10
16.08.2017 15:00:00 22,7 15,0 22 12 25 14 Z 1020,3 10
16.08.2017 14:00:00 22,6 12,9 18 10 22 12 Z 1020,6 10
16.08.2017 13:00:00 19,6 15,0 15 8 14 8 ZZW 1020,9 10
16.08.2017 12:00:00 22,4 16,0 15 8 14 8 ZZW 1020,8 10
16.08.2017 11:00:00 18,9 14,8 15 8 14 8 ZZW 1021,0 10
16.08.2017 10:00:00 18,3 14,7 15 8 14 8 ZZW 1020,8 10
16.08.2017 09:00:00 18,1 14,6 11 6 11 6 ZW 1020,3 10
16.08.2017 08:00:00 17,9 14,4 9 5 11 6 WZW 1019,9 10
16.08.2017 07:00:00 18,0 14,5 13 7 14 8 W 1019,5 10
16.08.2017 06:00:00 17,9 14,4 14 8 18 10 W 1019,2 48
16.08.2017 05:00:00 17,9 14,4 16 9 18 10 WZW 1018,6 10
16.08.2017 04:00:00 17,7 14,9 21 11 22 12 W 1018,3 10
16.08.2017 03:00:00 17,7 14,6 22 12 22 12 W 1018,2 10
16.08.2017 02:00:00 17,8 14,4 24 13 22 12 W 1018,0 10
16.08.2017 01:00:00 17,7 14,3 21 11 22 12 W 1017,8 10
16.08.2017 00:00:00 17,7 13,7 18 10 18 10 W 1017,2 10
15.08.2017 23:00:00 17,8 13,4 18 10 22 12 W 1016,8 10
15.08.2017 22:00:00 17,7 15,3 15 8 18 10 - 1016,3 10
15.08.2017 21:00:00 17,7 14,6 16 9 22 12 W 1015,9 10
15.08.2017 20:00:00 18,3 14,1 18 10 25 14 WNW 1014,9 10
15.08.2017 19:00:00 18,5 16,5 13 7 18 10 - 1014,6 10
15.08.2017 18:00:00 18,7 16,4 11 6 14 8 WZW 1014,5 10
15.08.2017 17:00:00 18,9 15,8 15 8 14 8 ZZW 1014,3 10
15.08.2017 16:00:00 18,9 15,5 13 7 14 8 ZW 1014,1 10
15.08.2017 15:00:00 18,9 15,2 13 7 18 10 WZW 1013,8 10
15.08.2017 14:00:00 18,4 15,0 21 11 25 14 WNW 1013,6 10
15.08.2017 13:00:00 18,0 14,9 26 14 29 16 W 1013,5 10
15.08.2017 12:00:00 19,4 16,5 28 15 36 19 ZW 1013,5 10
15.08.2017 11:00:00 19,9 16,3 39 21 36 19 ZW 1013,6 10
15.08.2017 10:00:00 19,6 16,4 29 16 29 16 ZW 1013,4 10
15.08.2017 09:00:00 22,0 17,4 26 14 29 16 Z 1013,3 10
15.08.2017 08:00:00 23,1 17,5 28 15 29 16 Z 1012,8 10
15.08.2017 07:00:00 22,9 17,7 29 16 29 16 Z 1013,0 10
15.08.2017 06:00:00 22,6 17,5 34 18 32 18 Z 1013,3 10
15.08.2017 05:00:00 21,7 16,9 35 19 36 19 Z 1013,7 10
15.08.2017 04:00:00 19,4 16,1 31 17 32 18 ZZO 1014,1 10
15.08.2017 03:00:00 19,3 15,9 34 18 32 18 ZZO 1014,6 10
15.08.2017 02:00:00 19,3 15,9 35 19 36 19 ZZO 1015,1 10
15.08.2017 01:00:00 19,6 15,9 34 18 32 18 ZO 1015,8 10
15.08.2017 00:00:00 19,7 15,8 34 18 32 18 OZO 1016,0 10
14.08.2017 23:00:00 19,9 16,0 34 18 36 19 OZO 1016,6 10
14.08.2017 22:00:00 20,0 16,3 35 19 32 18 OZO 1017,0 10
14.08.2017 21:00:00 20,1 15,8 34 18 32 18 OZO 1017,0 10
14.08.2017 20:00:00 20,1 15,0 35 19 32 18 OZO 1017,1 10
14.08.2017 19:00:00 20,1 15,2 28 15 25 14 OZO 1017,4 10
14.08.2017 18:00:00 20,2 15,3 21 11 25 14 OZO 1018,0 10
14.08.2017 17:00:00 20,4 13,8 8 4 11 6 ZO 1018,5 10
14.08.2017 16:00:00 19,7 14,6 8 4 14 8 ZO 1019,2 10
14.08.2017 15:00:00 19,8 13,8 15 8 22 12 ZZO 1019,7 10
14.08.2017 14:00:00 18,9 13,0 21 11 22 12 ZZO 1020,1 10
14.08.2017 13:00:00 18,1 12,9 21 11 22 12 ZZO 1020,6 10
14.08.2017 12:00:00 17,2 12,6 24 13 29 16 ZZO 1020,9 10
14.08.2017 11:00:00 16,4 11,8 31 17 32 18 ZZO 1021,0 10
14.08.2017 10:00:00 16,2 12,4 31 17 36 19 ZZO 1021,2 10
14.08.2017 09:00:00 16,0 12,1 37 20 36 19 ZZO 1021,1 10
14.08.2017 08:00:00 16,1 11,8 39 21 40 21 ZZO 1020,7 10
14.08.2017 07:00:00 16,2 10,8 34 18 36 19 ZZO 1020,9 10
14.08.2017 06:00:00 16,4 9,7 34 18 32 18 ZO 1021,0 10
14.08.2017 05:00:00 16,5 10,9 31 17 29 16 ZO 1021,2 10
14.08.2017 04:00:00 16,8 9,1 29 16 29 16 ZO 1021,5 10

tt = temperatuur
td = dauwpunt
ff = windsnelheid
fx = windstoten
dd = windrichting
ppp = luchtdruk
vv = zicht

Weerstations in de omgeving